Torna al catalogo

SL-16 DEB

AttivoLEO
NORAD 22419·DEBRIS·🇷🇺 Russia

Lanciato Dec 25, 1992 da Baikonur Cosmodrome

Loading…

Prossimi Passaggi (prossime 24 ore)

TLE

AggiornatoSource: Space-Track

Epoca: Sep 14, 2026, 15:03 UTC

1 22419U 92093DL  26257.62720480  .00000108  00000-0  10526-3 0  9998
2 22419  71.1818 345.7458 0103675  58.5489 302.5709 13.96134955713578

Traccia SL-16 DEB in tempo reale con AllMySat

Download on the App Store